Wind_Speed
18 18 19 19 19 20 21 21 22 23 23 22 22 23 24 25 26 27 28 29 30 31 32 32 33 34 34 35 36 36 37 38 39 41 43 44 46 46
21 21 21 22 22 22 23 24 24 25 25 26 25 25 25 26 27 28 29 30 30 31 32 34 35 36 37 37 38 38 39 39 40 40 42 44 45 47
23 23 23 23 24 24 24 25 25 26 26 27 27 27 27 26 27 28 29 30 31 32 33 34 35 37 38 39 40 40 41 41 42 42 42 43 44 46
26 25 25 25 25 25 26 26 26 27 28 28 29 28 28 28 27 28 28 29 31 32 33 34 35 36 38 39 41 42 43 44 44 44 44 44 45 46
28 28 28 27 28 28 28 28 28 29 29 29 30 30 30 31 30 30 30 30 31 32 33 35 36 37 38 39 41 42 44 46 46 47 47 46 46 47
30 30 30 30 30 31 31 31 31 31 31 31 31 32 32 33 33 33 33 33 33 34 35 36 37 38 39 39 41 42 44 45 47 48 49 49 49 49
32 32 33 33 33 34 34 34 34 33 33 33 33 33 34 35 35 34 34 34 34 35 36 37 38 38 39 40 41 41 43 44 46 48 50 51 51 50
35 35 36 36 37 37 37 38 37 37 36 36 36 36 36 37 36 36 36 36 36 37 37 38 38 38 39 40 41 42 43 44 45 47 49 51 52 52
39 39 40 40 40 41 41 41 41 40 40 40 39 39 39 39 39 38 38 38 38 39 38 38 39 40 40 41 41 42 43 44 45 46 47 49 52 54
44 44 44 44 44 44 45 44 44 43 43 43 42 42 42 42 41 41 40 40 40 40 40 40 40 41 41 42 42 43 44 44 45 46 47 48 50 53
48 48 48 48 48 48 49 48 47 46 46 46 46 45 45 44 44 43 43 43 42 42 42 41 42 42 42 43 43 43 44 45 45 46 47 48 49 51
53 53 52 52 52 52 52 51 51 50 50 50 49 48 47 47 46 46 46 45 44 43 44 43 43 43 43 43 44 45 45 45 45 45 46 47 48 50
57 57 57 56 56 56 56 56 55 54 54 53 52 51 50 49 48 48 48 48 46 45 45 45 44 45 45 44 44 45 45 45 45 45 45 46 48 49
62 62 62 62 61 61 61 60 59 59 58 57 56 55 54 52 51 50 50 49 48 47 46 46 45 45 46 45 44 45 45 45 45 45 45 46 46 47
67 67 67 67 67 66 65 64 64 63 62 60 59 58 57 55 54 53 52 51 50 48 48 47 47 46 46 45 45 45 45 45 45 45 45 45 45 46
71 71 71 71 71 70 69 68 67 66 65 64 62 60 59 57 56 54 53 52 50 49 48 48 47 47 46 45 45 44 45 45 45 45 45 45 44 44
73 73 72 72 72 71 71 70 69 68 66 65 63 61 59 57 55 54 53 52 51 49 48 47 46 46 45 45 44 43 44 44 44 45 45 44 44 44
73 72 72 72 71 71 70 69 68 67 65 63 62 60 58 56 54 53 52 51 50 49 48 47 46 45 44 43 43 43 43 43 43 44 44 44 44 44
71 70 70 69 67 67 66 65 64 62 61 60 59 57 56 55 54 53 52 51 49 48 47 45 44 44 43 42 41 42 41 41 42 42 42 43 43 44
65 65 64 62 60 59 58 57 57 56 55 54 54 54 54 53 52 51 50 49 48 46 45 44 43 43 42 41 40 40 39 40 40 41 42 42 42 43
57 55 54 52 51 50 49 48 48 48 48 48 48 48 48 48 48 47 47 47 46 45 44 43 42 42 40 40 38 37 37 38 39 40 41 42 42 43
48 45 44 42 42 41 41 40 39 40 40 42 43 43 44 44 44 44 43 42 41 40 41 41 40 40 39 37 36 36 36 36 37 38 39 41 41 41
38 36 34 34 34 34 34 34 34 35 35 36 38 39 39 38 38 38 38 38 38 38 38 38 38 37 37 36 35 34 34 35 36 36 37 38 40 40
Wind_Direction
287 289 291 293 294 296 297 297 296 294 291 287 284 280 277 275 273 271 269 267 265 263 262 260 259 258 257 255 254 253 251 249 248 247 245 242 240 239
285 286 287 287 289 291 293 294 294 293 292 289 286 282 279 277 276 275 272 270 268 266 264 262 260 259 257 256 255 253 252 251 250 249 247 245 243 242
285 285 286 287 287 288 289 291 292 292 292 290 288 285 282 279 277 275 274 272 270 268 267 265 263 261 259 257 255 253 252 251 251 250 249 247 245 244
284 284 285 285 287 287 288 289 291 290 290 289 288 286 284 282 279 276 274 273 272 271 269 268 266 263 261 259 257 255 253 252 251 250 250 248 246 245
284 284 285 285 286 287 288 289 289 289 288 287 286 285 284 282 280 278 276 275 274 273 271 270 268 266 264 261 259 257 255 253 251 250 249 248 247 247
284 285 286 286 286 287 288 289 289 289 288 286 286 285 284 283 281 279 278 277 276 275 273 271 269 267 265 263 261 258 256 254 253 251 250 248 247 247
285 285 286 286 287 288 288 288 288 288 287 286 285 285 284 283 282 280 279 279 278 276 275 272 270 269 266 264 262 260 258 256 254 253 251 249 248 247
285 284 285 286 287 287 287 287 286 286 286 286 285 285 284 283 282 281 280 279 279 278 277 275 273 270 268 266 264 261 259 258 256 254 252 250 248 247
284 284 285 285 286 285 284 284 284 284 284 284 284 284 284 283 282 281 280 279 280 280 279 277 275 272 270 268 266 263 261 260 258 256 254 252 250 247
284 285 285 284 284 284 283 283 282 282 283 283 283 283 283 283 283 282 281 280 279 279 279 278 276 274 271 269 266 264 262 261 259 257 256 254 251 249
284 284 283 283 283 282 282 281 281 281 281 281 281 281 281 282 282 281 281 281 280 279 278 278 276 274 272 270 267 264 262 261 259 258 257 255 253 251
283 282 282 282 282 281 281 280 280 280 280 280 279 279 280 280 281 281 281 280 280 279 278 277 275 274 272 270 268 266 263 261 260 258 257 255 254 252
282 282 282 281 280 279 279 279 279 278 278 278 278 278 278 278 279 279 279 279 279 278 277 276 274 273 272 270 268 266 264 262 260 258 257 256 254 253
281 281 280 279 279 278 278 278 277 277 276 276 276 277 277 277 277 277 277 277 277 276 275 274 273 272 271 270 268 266 264 263 261 259 257 256 254 253
280 279 279 278 278 277 277 276 275 275 275 275 275 275 275 276 276 276 275 275 275 274 273 273 272 271 270 269 268 266 264 263 261 259 257 255 254 253
280 279 278 277 277 276 275 274 273 273 273 273 273 273 272 273 273 273 273 273 273 272 271 270 270 270 269 268 267 266 264 263 261 259 257 255 253 253
280 279 278 277 276 275 274 273 272 271 271 271 271 270 269 269 270 270 270 270 270 271 269 268 268 268 268 267 266 265 264 262 260 259 257 255 254 253
281 280 279 277 276 275 274 272 271 270 269 268 268 267 265 266 266 266 266 267 268 267 267 267 267 266 265 265 266 264 263 261 260 259 257 256 254 252
283 282 280 279 277 275 273 272 269 268 266 265 264 263 262 261 262 262 262 263 264 264 264 265 265 264 264 263 263 263 262 261 259 258 256 255 254 252
285 284 282 280 277 275 273 271 268 265 263 261 260 259 259 258 258 259 258 259 260 261 262 263 264 264 263 262 262 262 262 261 259 257 256 256 255 253
287 285 283 280 277 275 273 270 267 264 260 258 256 255 255 256 256 255 255 257 258 258 259 261 261 261 261 261 261 261 261 260 259 258 257 256 254 252
288 286 283 280 277 275 273 269 266 262 258 256 252 251 252 253 253 252 253 255 255 256 257 257 257 258 258 259 260 260 260 260 260 259 258 256 253 252
289 287 284 281 279 276 273 269 266 261 257 253 251 248 247 248 249 250 251 252 252 253 254 254 254 254 255 257 258 258 259 260 260 261 259 255 252 251
Height
5861 5859 5858 5856 5854 5852 5850 5849 5847 5845 5844 5843 5842 5841 5839 5838 5837 5837 5837 5836 5836 5837 5837 5838 5839 5840 5841 5842 5844 5846 5847 5849 5852 5854 5857 5860 5864 5867
5856 5854 5852 5851 5849 5847 5845 5843 5841 5839 5837 5835 5835 5834 5833 5831 5830 5829 5829 5828 5828 5828 5829 5829 5830 5831 5832 5833 5835 5837 5838 5840 5842 5845 5847 5850 5854 5857
5850 5848 5846 5845 5843 5841 5839 5837 5835 5833 5830 5828 5827 5826 5825 5824 5823 5822 5821 5820 5819 5820 5819 5820 5820 5821 5822 5823 5825 5827 5828 5830 5833 5835 5837 5840 5843 5847
5843 5841 5839 5838 5836 5834 5832 5830 5828 5826 5824 5821 5819 5818 5816 5815 5815 5814 5813 5812 5811 5810 5810 5810 5810 5811 5811 5812 5814 5816 5818 5820 5822 5824 5827 5830 5833 5836
5835 5833 5832 5830 5828 5826 5824 5822 5820 5818 5816 5814 5811 5809 5808 5807 5806 5805 5804 5803 5802 5801 5801 5800 5800 5800 5800 5801 5802 5804 5806 5808 5811 5813 5815 5818 5821 5824
5827 5825 5823 5821 5819 5817 5816 5813 5811 5809 5807 5805 5803 5801 5799 5797 5796 5795 5794 5793 5792 5791 5790 5790 5789 5789 5789 5790 5791 5792 5793 5795 5798 5801 5803 5806 5810 5813
5818 5816 5814 5812 5810 5808 5806 5804 5802 5800 5798 5796 5794 5792 5790 5788 5786 5785 5784 5783 5782 5780 5780 5779 5778 5778 5777 5778 5779 5780 5781 5783 5785 5787 5790 5793 5797 5800
5808 5806 5804 5802 5799 5797 5795 5793 5791 5789 5787 5785 5784 5782 5779 5777 5776 5775 5773 5772 5771 5770 5769 5768 5767 5766 5766 5766 5767 5768 5769 5770 5772 5774 5776 5780 5783 5787
5797 5794 5792 5790 5788 5786 5784 5781 5779 5777 5776 5774 5772 5770 5768 5766 5765 5763 5762 5761 5760 5758 5757 5756 5754 5754 5754 5754 5755 5755 5756 5757 5759 5761 5763 5766 5769 5772
5784 5782 5780 5778 5776 5773 5771 5769 5767 5765 5763 5761 5760 5758 5756 5754 5752 5751 5750 5749 5748 5746 5744 5744 5742 5742 5741 5741 5742 5743 5743 5744 5746 5747 5750 5752 5754 5758
5770 5767 5765 5764 5762 5759 5756 5754 5753 5752 5750 5748 5747 5745 5743 5741 5739 5738 5737 5735 5735 5733 5732 5731 5730 5728 5728 5728 5728 5729 5730 5731 5732 5734 5736 5738 5740 5743
5754 5752 5750 5748 5746 5743 5740 5739 5738 5737 5734 5733 5732 5731 5729 5727 5725 5724 5723 5721 5721 5720 5719 5717 5716 5715 5715 5715 5714 5715 5716 5717 5719 5721 5722 5724 5726 5729
5737 5735 5733 5731 5729 5726 5724 5722 5722 5720 5718 5716 5715 5715 5714 5713 5711 5710 5708 5707 5707 5707 5705 5704 5703 5701 5701 5702 5701 5701 5702 5704 5705 5707 5709 5711 5713 5715
5718 5716 5714 5712 5710 5707 5706 5705 5703 5701 5700 5699 5698 5698 5697 5697 5696 5695 5694 5693 5692 5692 5690 5689 5689 5688 5687 5687 5688 5688 5689 5690 5691 5693 5695 5697 5699 5702
5698 5695 5693 5691 5688 5686 5685 5684 5682 5681 5680 5680 5680 5680 5680 5679 5679 5678 5677 5677 5677 5677 5676 5675 5674 5674 5673 5674 5674 5675 5675 5676 5677 5679 5681 5683 5686 5688
5675 5672 5670 5668 5665 5663 5662 5661 5660 5660 5659 5660 5660 5661 5661 5661 5661 5661 5661 5661 5661 5662 5661 5661 5660 5659 5660 5660 5661 5662 5662 5663 5664 5665 5667 5670 5672 5675
5650 5648 5645 5642 5640 5639 5638 5637 5636 5637 5637 5638 5639 5641 5642 5642 5643 5644 5644 5644 5645 5646 5646 5646 5646 5646 5646 5646 5647 5648 5648 5649 5650 5652 5654 5656 5659 5662
5624 5622 5620 5617 5614 5613 5612 5612 5612 5613 5614 5616 5618 5620 5622 5623 5625 5626 5627 5628 5629 5630 5630 5631 5631 5632 5632 5633 5634 5634 5635 5636 5637 5639 5640 5643 5646 5649
5599 5596 5593 5591 5589 5587 5587 5587 5588 5590 5591 5594 5596 5599 5601 5604 5606 5609 5610 5612 5613 5614 5615 5616 5616 5617 5618 5620 5621 5621 5622 5623 5624 5626 5627 5630 5632 5635
5576 5572 5569 5567 5565 5564 5564 5564 5565 5567 5570 5573 5576 5579 5582 5585 5588 5591 5594 5596 5598 5599 5600 5602 5603 5604 5605 5607 5607 5608 5609 5610 5611 5613 5615 5617 5619 5622
5556 5551 5548 5545 5544 5544 5543 5544 5545 5547 5550 5553 5557 5561 5564 5568 5571 5575 5578 5580 5583 5584 5586 5588 5590 5591 5591 5593 5594 5596 5597 5598 5599 5600 5602 5603 5606 5608
5538 5534 5531 5529 5527 5527 5527 5528 5529 5531 5533 5536 5540 5544 5548 5552 5556 5560 5563 5566 5568 5570 5573 5575 5577 5578 5579 5581 5582 5583 5584 5586 5587 5587 5589 5591 5592 5595
5523 5520 5518 5516 5514 5514 5514 5514 5515 5517 5519 5522 5526 5530 5534 5539 5543 5546 5549 5552 5555 5557 5560 5562 5564 5565 5567 5569 5570 5572 5573 5574 5574 5575 5577 5578 5580 5582